Terminal Aerodrome Forecast
Issued by NWS Wilmington, OH

Current Version | Previous Version | Graphics & Text | Print | Product List | Glossary On
Versions: 1 2 3 4 5 6 7 8 9 10 11 12 13 14 15 16 17 18 19 20 21 22 23 24 25 26 27 28 29 30 31
690
FTUS41 KILN 220549
TAFILN
TAF
KILN 220549Z 2206/2306 05012KT P6SM -RA BKN008 OVC040
     FM220900 04012KT 4SM -RA BR OVC007
     FM221400 05010KT P6SM BKN007 OVC025
     FM230300 08007KT 5SM BR OVC007=

USA.gov is the U.S. government's official web portal to all federal, state and local government web resources and services.